Wind_Speed
27 27 32 34 32 37 43 48 53 57 59 59 60 62 65 65 66 67 66 63 63 63 65 62 64 63 68 65 63 57 52 49 43 34 27 20 19 18 16 18 16 16 14 18
30 33 34 36 40 46 48 51 54 57 58 60 62 63 64 66 66 67 65 63 62 63 63 63 63 64 65 65 64 62 56 49 46 39 35 26 17 19 19 19 14 15 19 18
33 35 38 42 44 49 50 50 52 54 57 58 62 62 63 66 65 66 65 62 60 62 61 62 62 63 65 63 66 64 59 49 43 43 40 31 25 18 21 19 17 15 17 16
34 38 41 46 49 50 56 55 54 55 57 59 61 61 63 66 67 65 66 62 59 60 61 60 61 62 65 65 67 65 63 53 44 40 39 34 27 21 20 22 21 19 15 13
39 42 46 50 52 53 53 55 55 56 57 59 60 61 63 66 68 66 65 62 59 60 60 61 60 63 65 65 67 68 65 57 50 42 38 34 26 22 21 22 23 21 19 14
43 46 49 53 54 54 54 55 56 57 56 58 61 63 65 66 69 64 63 62 59 57 58 59 61 63 65 67 69 70 67 62 54 43 39 35 27 22 21 23 25 24 20 16
45 47 50 52 56 56 56 57 56 58 58 60 64 66 67 66 66 65 61 62 59 57 56 57 58 60 63 66 69 70 68 63 56 47 40 35 28 25 24 26 27 28 26 23
44 46 50 53 58 56 56 55 57 60 61 63 66 68 70 69 65 60 60 60 58 58 57 57 58 61 63 64 68 70 69 63 55 48 41 38 34 23 25 27 28 31 30 29
46 48 51 54 58 58 57 57 60 63 66 67 70 72 71 69 63 61 58 59 58 57 57 58 60 62 64 68 71 72 68 63 60 49 46 38 33 30 28 28 30 32 34 34
50 52 55 58 58 54 57 60 64 67 69 69 72 72 72 67 62 59 58 57 57 56 57 57 59 63 65 68 70 72 69 65 61 53 46 42 37 31 30 29 30 36 38 38
55 57 55 58 57 58 60 62 67 71 73 72 74 73 70 64 61 59 58 58 57 56 56 57 59 62 65 69 70 72 70 64 56 53 48 44 36 35 34 33 33 36 40 41
59 58 59 59 59 62 64 66 70 74 76 76 76 73 67 64 59 58 57 58 58 57 57 58 59 63 66 69 70 71 70 63 58 51 47 44 39 35 35 32 34 36 40 44
64 59 62 64 64 65 68 70 74 78 78 77 80 72 68 61 58 58 57 58 58 57 57 59 60 63 66 70 72 73 69 62 58 51 45 43 38 37 35 33 32 34 38 44
66 65 64 67 70 70 72 74 75 77 78 81 77 72 67 61 58 58 57 58 57 57 58 60 62 65 67 70 72 71 67 65 55 50 43 42 38 35 34 34 30 32 35 40
65 63 64 69 72 72 72 75 77 78 76 77 76 73 66 61 58 57 57 57 57 58 58 60 62 65 70 72 73 68 66 60 53 47 42 41 38 35 32 33 32 31 34 38
69 70 70 75 73 72 78 80 78 74 79 78 76 75 63 59 57 58 57 54 57 58 59 61 62 67 70 74 70 66 63 57 49 45 41 39 36 34 32 31 32 31 32 36
73 73 75 78 78 77 78 80 80 80 79 76 73 67 60 57 58 57 54 54 57 58 60 61 65 68 69 72 69 65 62 53 47 42 39 37 34 32 31 30 31 32 30 34
78 78 79 79 78 78 78 75 76 76 74 73 66 62 58 57 57 54 55 57 57 59 61 63 66 69 70 70 67 64 57 50 45 40 38 36 33 32 31 31 30 31 31 31
85 82 80 77 77 75 72 70 72 73 70 67 62 58 58 56 53 58 57 58 58 60 60 64 67 67 69 67 65 58 53 48 44 40 37 36 35 34 33 32 30 30 31 30
82 81 77 74 69 69 70 68 69 69 66 61 56 55 53 55 57 57 58 58 58 61 61 66 66 65 66 62 58 53 50 47 45 43 41 38 37 35 34 33 33 32 30 30
65 61 60 60 61 62 63 64 65 64 62 57 53 51 54 55 57 56 57 60 61 62 64 65 66 63 61 58 54 51 49 48 47 45 44 42 41 38 35 34 33 32 31 31
51 49 52 53 53 57 60 62 62 58 55 53 53 53 55 55 55 56 57 58 62 64 65 65 64 63 58 54 51 50 49 49 49 48 46 43 41 40 37 35 33 32 32 32
40 43 42 49 52 56 59 59 55 52 53 54 54 55 54 54 55 55 58 59 63 65 64 63 61 58 54 52 51 50 50 50 50 50 48 44 39 36 34 35 35 34 33 32
42 43 44 46 53 56 55 53 51 52 54 55 55 54 53 53 54 55 58 61 63 63 61 59 56 53 51 50 50 51 52 51 51 49 46 41 37 34 32 32 33 35 35 34
43 44 47 45 47 52 51 50 51 54 54 53 52 52 50 51 52 56 59 60 59 58 55 53 50 49 49 49 49 50 51 51 49 45 41 37 32 30 29 28 30 32 34 35
43 43 43 43 49 49 47 50 51 50 50 50 49 48 48 51 53 55 56 55 54 52 50 48 47 47 47 47 48 49 49 48 44 40 35 31 27 24 24 23 25 28 31 33
43 38 43 48 45 44 47 46 46 46 46 44 44 45 48 51 52 53 52 50 49 47 45 44 44 44 45 45 46 47 46 43 38 34 30 27 22 19 19 19 19 23 27 30
Wind_Direction
333 334 331 329 324 324 330 330 332 337 339 342 343 345 346 348 349 348 345 343 342 344 343 347 347 349 347 348 349 349 347 346 344 338 327 314 297 300 309 307 285 267 272 252
321 322 321 322 323 323 322 326 327 330 336 338 341 343 345 346 346 345 344 342 342 342 342 344 346 347 346 345 347 345 347 342 341 335 329 321 302 284 287 292 282 284 271 247
320 320 320 320 320 327 331 329 332 333 335 337 338 340 343 343 344 342 341 339 339 341 340 342 343 344 345 344 343 343 344 343 337 328 326 323 307 287 269 271 276 272 274 269
319 319 319 321 322 325 328 328 331 332 334 334 335 338 341 341 342 340 338 337 337 339 338 340 340 342 342 342 342 341 342 345 339 325 321 318 306 291 272 265 266 259 264 270
312 315 320 322 324 326 328 329 330 331 331 333 334 337 340 340 339 336 336 335 335 336 336 337 338 339 339 340 341 340 341 342 339 333 325 317 309 288 272 260 258 257 246 244
311 315 320 323 320 322 324 325 327 328 331 332 333 335 337 337 336 335 333 332 331 333 334 335 335 337 338 337 339 338 339 338 338 336 326 319 310 289 268 261 252 251 243 228
311 315 318 321 321 319 320 322 325 327 330 332 331 333 333 333 333 332 329 328 328 331 332 333 332 334 334 335 336 336 337 337 335 331 327 320 310 293 273 258 255 248 242 223
310 314 315 317 320 319 318 320 322 324 327 330 329 329 329 330 331 329 326 324 325 327 330 331 331 331 333 334 334 335 336 335 331 328 325 320 311 298 280 259 248 251 241 233
304 307 309 314 317 315 315 317 321 324 326 327 326 326 327 328 329 328 324 322 323 325 328 330 330 330 331 333 332 334 334 333 330 328 320 318 309 300 283 267 250 247 242 235
303 304 308 311 310 311 313 316 317 318 321 324 323 324 325 326 326 325 322 319 321 322 325 327 328 328 329 330 331 332 333 331 328 325 319 312 311 298 283 275 258 242 240 236
301 303 307 305 307 309 311 314 315 314 317 321 320 322 323 323 323 321 319 318 318 319 323 325 326 326 327 326 329 330 329 328 324 320 315 311 306 296 285 275 263 247 238 235
297 301 301 302 304 306 309 312 312 312 315 318 318 320 319 321 320 318 316 315 316 319 320 323 324 323 325 324 328 328 327 325 320 317 311 307 304 294 289 281 267 254 240 233
294 297 299 300 302 305 308 311 311 310 311 314 316 317 317 317 317 316 311 313 314 316 318 320 322 322 323 322 326 326 326 322 319 315 316 306 300 296 291 284 273 261 246 236
297 297 296 297 299 302 305 306 308 310 308 310 314 314 314 314 314 314 311 311 312 314 316 319 321 321 321 322 324 323 322 321 318 317 313 304 303 297 289 284 275 264 253 240
295 296 297 299 295 296 301 302 305 307 305 308 310 311 312 312 312 312 310 309 309 312 315 317 319 318 319 322 323 322 321 319 317 315 310 305 302 296 291 284 278 265 255 246
291 292 294 294 296 297 299 301 305 305 306 304 307 310 309 311 310 310 309 307 308 312 315 316 319 317 319 320 321 321 320 318 315 313 310 305 301 298 293 285 278 269 258 250
287 288 289 290 294 296 297 300 304 304 304 303 304 305 310 309 310 309 308 307 309 313 314 317 317 317 318 318 320 320 319 318 315 312 308 303 299 297 294 288 280 273 261 252
286 287 287 290 293 294 297 299 300 302 301 302 303 307 308 308 306 308 308 309 311 314 316 316 315 317 318 318 318 318 317 317 314 311 307 302 300 297 292 287 280 272 264 254
284 286 289 290 293 295 297 298 300 300 300 301 305 307 307 306 304 307 308 309 312 313 315 315 317 316 316 319 317 317 317 316 313 310 307 303 300 295 289 283 277 270 262 254
287 287 289 292 296 295 297 296 298 299 299 301 304 304 303 304 306 308 308 309 311 312 316 314 316 316 316 316 316 317 316 315 313 312 309 304 299 294 287 279 274 269 261 254
298 299 296 294 293 294 295 295 297 298 299 302 302 302 305 305 306 307 307 309 311 314 313 315 316 315 317 317 318 317 315 315 313 311 308 305 300 292 284 277 270 265 259 253
302 294 291 291 290 290 291 295 296 296 300 302 304 305 304 304 305 306 307 309 311 312 315 315 316 318 317 317 316 315 315 315 313 311 307 303 296 289 284 277 267 261 256 250
293 280 278 284 284 287 291 292 296 296 300 303 303 303 303 305 306 307 308 310 311 314 315 317 318 318 317 316 315 315 316 315 314 311 309 305 297 288 277 271 266 259 252 245
286 280 275 275 280 286 289 293 291 296 301 301 302 303 305 306 307 307 309 311 312 314 317 319 318 318 316 316 318 318 318 317 315 312 309 304 298 289 278 266 259 255 252 246
276 270 272 279 281 282 287 288 292 296 297 299 302 303 306 307 309 309 310 312 316 318 319 319 319 318 318 318 319 319 319 318 315 313 309 306 300 290 281 267 256 250 247 245
269 268 273 278 278 282 286 289 292 294 297 301 303 306 307 309 309 310 312 315 317 320 320 321 320 319 320 319 320 321 321 320 317 314 311 306 300 292 281 270 257 249 245 242
265 273 273 272 274 279 284 288 292 296 301 304 306 307 307 309 310 313 316 319 322 322 323 323 322 322 321 321 323 324 324 322 318 316 313 309 304 293 282 272 259 250 245 241
Height
5738 5733 5728 5722 5716 5709 5702 5695 5686 5678 5669 5661 5650 5639 5626 5616 5604 5594 5584 5572 5559 5547 5536 5526 5512 5501 5486 5477 5466 5458 5449 5440 5433 5428 5423 5419 5415 5410 5407 5404 5402 5400 5398 5397
5732 5727 5722 5716 5711 5705 5698 5690 5681 5672 5663 5653 5641 5631 5620 5609 5598 5587 5578 5566 5555 5542 5530 5519 5508 5496 5485 5471 5462 5452 5443 5432 5424 5422 5416 5411 5409 5406 5403 5400 5397 5395 5394 5393
5726 5721 5715 5709 5703 5696 5688 5680 5672 5663 5655 5646 5635 5625 5614 5603 5592 5582 5572 5561 5549 5538 5526 5515 5504 5494 5485 5471 5460 5449 5437 5430 5421 5414 5407 5405 5401 5400 5398 5396 5394 5392 5389 5388
5719 5713 5707 5701 5694 5687 5680 5672 5663 5654 5645 5636 5627 5618 5607 5596 5586 5577 5563 5555 5542 5532 5520 5512 5500 5491 5478 5468 5456 5446 5433 5426 5417 5409 5403 5397 5394 5392 5391 5390 5389 5388 5386 5383
5711 5705 5698 5692 5685 5678 5671 5662 5654 5647 5637 5628 5618 5609 5600 5589 5579 5568 5558 5548 5535 5524 5513 5503 5495 5483 5472 5463 5452 5439 5428 5419 5410 5404 5396 5390 5386 5386 5383 5382 5382 5382 5381 5381
5702 5696 5690 5683 5675 5668 5660 5652 5646 5638 5631 5620 5609 5600 5590 5580 5569 5562 5549 5540 5530 5519 5508 5497 5485 5475 5465 5454 5444 5432 5421 5409 5401 5396 5388 5382 5380 5378 5376 5374 5375 5376 5376 5376
5693 5687 5681 5674 5666 5657 5650 5642 5635 5628 5621 5611 5599 5590 5582 5572 5561 5550 5539 5530 5520 5513 5502 5493 5480 5472 5461 5450 5438 5425 5414 5402 5394 5386 5381 5376 5372 5369 5368 5367 5366 5368 5370 5369
5684 5678 5672 5664 5656 5648 5640 5632 5625 5617 5610 5601 5591 5581 5571 5562 5553 5541 5527 5520 5512 5501 5492 5483 5473 5462 5454 5444 5432 5419 5407 5395 5385 5377 5371 5366 5362 5361 5359 5358 5360 5359 5362 5363
5673 5668 5662 5654 5646 5638 5630 5623 5613 5605 5598 5591 5579 5569 5559 5550 5540 5532 5522 5510 5501 5492 5483 5472 5462 5452 5443 5430 5418 5409 5399 5389 5379 5369 5360 5357 5353 5351 5349 5348 5350 5349 5351 5354
5662 5657 5650 5643 5636 5628 5620 5612 5601 5593 5585 5582 5568 5558 5547 5538 5528 5520 5511 5502 5493 5483 5473 5464 5454 5443 5434 5422 5411 5399 5389 5378 5368 5359 5353 5347 5344 5341 5339 5339 5342 5338 5339 5343
5649 5644 5638 5631 5623 5616 5607 5601 5590 5578 5572 5569 5556 5548 5537 5526 5517 5507 5498 5490 5484 5474 5464 5455 5446 5434 5424 5413 5403 5392 5381 5370 5361 5349 5342 5338 5334 5330 5328 5328 5326 5327 5329 5331
5636 5631 5625 5619 5610 5603 5595 5588 5578 5566 5557 5553 5545 5536 5526 5516 5506 5497 5488 5479 5469 5460 5452 5444 5436 5426 5415 5405 5396 5385 5371 5363 5353 5346 5336 5326 5322 5318 5314 5313 5313 5314 5316 5320
5621 5616 5611 5605 5597 5589 5582 5575 5565 5553 5544 5536 5529 5521 5513 5505 5496 5487 5478 5470 5459 5450 5441 5433 5425 5413 5403 5391 5381 5369 5360 5348 5339 5330 5326 5315 5310 5306 5302 5300 5300 5301 5303 5307
5606 5601 5595 5589 5581 5575 5567 5560 5552 5540 5526 5518 5516 5507 5500 5492 5484 5475 5465 5457 5448 5439 5429 5419 5411 5400 5392 5382 5371 5357 5343 5333 5325 5317 5310 5302 5298 5294 5290 5287 5289 5288 5289 5293
5589 5583 5578 5571 5564 5559 5551 5544 5538 5529 5517 5503 5497 5492 5487 5479 5471 5462 5452 5444 5435 5427 5419 5409 5399 5389 5375 5367 5355 5345 5331 5320 5312 5304 5299 5291 5286 5282 5279 5275 5276 5276 5277 5279
5572 5566 5560 5553 5548 5543 5533 5526 5525 5514 5502 5489 5482 5478 5473 5465 5457 5448 5440 5432 5422 5414 5405 5397 5388 5375 5362 5350 5342 5331 5319 5308 5298 5293 5286 5280 5275 5270 5267 5265 5263 5264 5265 5266
5552 5547 5540 5534 5531 5528 5518 5509 5505 5496 5485 5474 5464 5460 5459 5452 5444 5434 5426 5418 5410 5401 5391 5383 5370 5359 5349 5336 5326 5316 5305 5296 5286 5279 5274 5270 5265 5261 5257 5254 5252 5252 5254 5255
5533 5526 5519 5513 5512 5507 5502 5494 5486 5477 5467 5460 5451 5446 5442 5436 5428 5421 5413 5405 5397 5388 5377 5368 5357 5346 5333 5322 5311 5301 5292 5284 5276 5269 5263 5258 5254 5250 5247 5244 5242 5241 5242 5244
5509 5507 5500 5492 5492 5488 5485 5476 5469 5461 5456 5444 5441 5434 5426 5419 5413 5406 5398 5389 5381 5374 5366 5355 5345 5331 5319 5307 5296 5286 5278 5271 5264 5258 5253 5247 5242 5238 5236 5234 5232 5231 5231 5232
5489 5483 5478 5473 5474 5468 5465 5456 5451 5445 5440 5434 5430 5422 5414 5406 5397 5389 5381 5374 5367 5356 5353 5339 5331 5318 5303 5293 5282 5273 5264 5256 5250 5245 5240 5235 5229 5226 5223 5222 5220 5219 5219 5220
5469 5463 5459 5455 5453 5450 5446 5439 5435 5428 5423 5419 5414 5407 5400 5391 5385 5376 5367 5357 5349 5343 5336 5325 5314 5303 5291 5279 5269 5261 5253 5245 5237 5230 5225 5220 5215 5212 5209 5208 5207 5207 5208 5209
5450 5447 5441 5439 5437 5432 5429 5425 5421 5416 5409 5405 5398 5392 5386 5379 5370 5363 5354 5346 5336 5328 5319 5308 5297 5287 5275 5265 5257 5249 5241 5233 5225 5218 5211 5206 5201 5196 5193 5193 5194 5195 5196 5198
5432 5429 5426 5424 5421 5416 5411 5409 5407 5402 5396 5391 5385 5379 5373 5365 5358 5350 5340 5332 5324 5315 5305 5292 5283 5271 5261 5252 5244 5237 5229 5221 5211 5203 5197 5190 5186 5182 5181 5179 5179 5181 5183 5186
5415 5412 5410 5410 5403 5400 5399 5397 5394 5389 5383 5377 5371 5366 5361 5352 5345 5336 5326 5318 5308 5298 5289 5278 5268 5258 5249 5240 5231 5222 5214 5206 5197 5189 5181 5175 5171 5167 5166 5166 5166 5167 5169 5174
5401 5398 5395 5394 5392 5390 5388 5385 5381 5377 5371 5366 5360 5353 5349 5340 5332 5324 5313 5302 5293 5284 5274 5264 5255 5245 5236 5228 5219 5211 5201 5192 5183 5175 5168 5162 5158 5154 5153 5154 5154 5155 5158 5161
5385 5384 5383 5382 5381 5379 5376 5372 5368 5363 5359 5353 5347 5340 5334 5328 5320 5311 5301 5291 5281 5272 5262 5252 5243 5234 5225 5217 5208 5199 5189 5180 5170 5162 5156 5151 5147 5144 5142 5143 5144 5145 5147 5150
5371 5373 5371 5369 5368 5366 5364 5360 5355 5351 5346 5341 5334 5328 5322 5314 5307 5298 5289 5280 5271 5261 5252 5243 5233 5225 5216 5208 5199 5189 5179 5169 5160 5153 5147 5142 5139 5136 5134 5134 5135 5136 5138 5141